Regional Weather Roundup
Issued by NWS

Home | Current Version | Previous Version | Graphics & Text | Print | Product List | Glossary Off
Versions: 1 2 3 4 5 6 7 8 9 10 11 12 13 14 15 16 17 18 19 20 21 22 23 24 25 26 27 28 29 30 31 32 33 34 35 36 37 38 39 40 41 42 43 44 45 46 47 48 49 50

000
ASUS43 KLSX 280307
RWRMO

WEATHER SUMMARY FOR MISSOURI
NATIONAL WEATHER SERVICE SPRINGFIELD MO
1000 PM CDT FRI MAR 27 2015

NOTE: "FAIR" INDICATES FEW OR NO CLOUDS BELOW 12,000 FEET WITH NO
       SIGNIFICANT WEATHER AND/OR OBSTRUCTIONS TO VISIBILITY.
       CURRENT SKY AND/OR WEATHER CONDITIONS ARE NOT AVAILABLE FOR
       CHILLICOTHE AND FARMINGTON.

MOZ001>031-035>038-043-044-053-054-280400-
...NORTHERN AND WESTERN MISSOURI...

CITY           SKY/WX    TMP DP  RH WIND       PRES   REMARKS
KANSAS CTY INT CLOUDY    38  22  52 SE5       30.16R
KANSAS C DTWN  CLOUDY    42  19  39 CALM      30.17S
LEE`S SUMMIT   CLOUDY    41  18  39 CALM      30.17S
ST JOSEPH      CLOUDY    39  21  48 CALM      30.17R
CHILLICOTHE      N/A     40  20  44 CALM      30.18S
KIRKSVILLE     CLOUDY    35  17  47 E3        30.18R

$$
MOZ066>068-077>081-088>096-101>105-280400-
...SOUTHWEST MISSOURI...

CITY           SKY/WX    TMP DP  RH WIND       PRES   REMARKS
SPRINGFIELD    CLOUDY    42  22  44 N3        30.16S
JOPLIN         CLOUDY    44  24  45 E6        30.16F

$$
MOZ032>034-039>042-045>050-055>058-069>072-280400-
...CENTRAL MISSOURI...

CITY           SKY/WX    TMP DP  RH WIND       PRES   REMARKS
COLUMBIA       CLOUDY    39  20  46 W3        30.18R
JEFFERSON CITY CLOUDY    39  23  52 CALM      30.20R
ROLLA          CLOUDY    36  24  62 CALM      30.16R
SEDALIA        CLOUDY    41  23  48 CALM      30.18S
WHITEMAN AFB   CLOUDY    40  21  47 E2        30.17S
WARRENSBURG    CLOUDY    39  21  48 E5        30.18S
OSAGE BEACH    CLOUDY    37  25  60 CALM      30.18S

$$
MOZ051-052-059>065-280400-
...EAST CENTRAL MISSOURI...

CITY           SKY/WX    TMP DP  RH WIND       PRES   REMARKS
ST LOUIS INTL  PTCLDY    37  19  48 N6        30.19R
SPIRIT OF STL  PTCLDY    30  24  78 CALM      30.19R
ST CHARLES     PTCLDY    34  18  52 NE9       30.20R WCI  27

$$
MOZ072>076-082>087-097>100-106>115-280400-
...SOUTH CENTRAL AND SOUTHEAST MISSOURI...

CITY           SKY/WX    TMP DP  RH WIND       PRES   REMARKS
CAPE GIRARDEAU CLEAR     33  24  69 CALM      30.19R
FARMINGTON     MOCLDY    30  21  69 CALM      30.20R
POPLAR BLUFF   PTCLDY    37  27  67 CALM      30.18R
WEST PLAINS    CLOUDY    39  21  48 N3        30.17R

$$



USA.gov is the U.S. government's official web portal to all federal, state and local government web resources and services.